Tracking 17154 objects as of 3-August-2015
HD Live streaming from Space Station

NAVSTAR 36 (USA 100)

Track NAVSTAR 36 (USA 100) now!
NAVSTAR 36 (USA 100) is classified as:


NORAD ID: 23027
Int'l Code: 1994-016A
Perigee: 19,922.5 km
Apogee: 20,455.6 km
Inclination: 54.4 °
Period: 718.0 minutes
Semi major axis: 26560 km
RCS: 2.0263 m2 (large)
Launch date: March 10, 1994
Source: United States (US)
PRN:
Your satellite tracking list
Your tracking list is empty





NASA's NSSDC Master Catalog

Two Line Element Set (TLE):
1 23027U 94016A   15215.35372476 -.00000036  00000-0  00000+0 0  9994
2 23027 054.4126 063.1776 0100363 005.7809 261.5752 02.00567429156803

Source of the keplerian elements: AFSPC

N2YO: 351